Regional Weather Roundup
Issued by NWS

Home | Current Version | Previous Version | Text Only | Print | Product List | Glossary Off
Versions: 1 2 3 4 5 6 7 8 9 10 11 12 13 14 15 16 17 18 19 20 21 22 23 24 25 26 27 28 29 30 31 32 33 34 35 36 37 38 39 40 41 42 43 44 45 46 47 48 49 50

000
ASUS45 KBOU 131807
RWRCO

WEATHER ROUNDUP FOR COLORADO
NATIONAL WEATHER SERVICE DENVER/BOULDER CO
1100 AM MST SAT FEB 13 2016

NOTE: "FAIR" INDICATES FEW OR NO CLOUDS BELOW 12000 FEET WITH NO
SIGNIFICANT WEATHER AND/OR OBSTRUCTIONS TO VISIBILITY.

COZ001>005-013-030-031-131900-
...NORTHWEST COLORADO...

CITY           SKY/WX    TMP DP  RH WIND       PRES   REMARKS
CRAIG          FAIR      24  18  77 W3        30.24F
HAYDEN         FAIR      28  18  64 NE5       30.22F WCI  23
MEEKER         FAIR      32  21  64 CALM      30.22F
MOUNT WERNER   NOT AVBL
STEAMBOAT SPGS FAIR      24  16  70 CALM      30.23F
WALDEN         FAIR      39  18  41 SE3       30.19F
$$

COZ006>008-011-131900-
...WEST CENTRAL VALLEYS...

CITY           SKY/WX    TMP DP  RH WIND       PRES   REMARKS
GRAND JUNCTION FAIR      38  28  67 CALM      30.27F
MONTROSE       FAIR      40  27  59 SE6       30.26F
EAGLE          NOT AVBL
RIFLE          FAIR      31  21  66 N3        30.27F
DELTA          FAIR      42  28  56 CALM      30.27F
NUCLA          FAIR      43  27  52 CALM      30.29F
$$

COZ017>023-064>068-131900-
...SOUTHWEST COLORADO...

CITY           SKY/WX    TMP DP  RH WIND       PRES   REMARKS
DURANGO        FAIR      37  25  61 NE7       30.29F
CORTEZ         FAIR      49  25  39 CALM      30.28F
PAGOSA SPRINGS FAIR      47  21  36 S5        30.31F
TELLURIDE      FAIR      49   7  17 W5        30.35F
WOLF CREEK PAS FAIR      32  14  47 SW15G23   30.44S WCI  22
$$

COZ009-010-012-014-032>034-037-058>063-131900-
...CENTRAL COLORADO...

CITY           SKY/WX    TMP DP  RH WIND       PRES   REMARKS
ASPEN          FAIR      43  13  29 CALM      30.22F
BUENA VISTA    FAIR      52   4  14 W21G36    30.19S
COPPER MTN     FAIR      36   0  21 SW23G39   30.32F
BERTHOUD PASS  FAIR      28  18  64 W44G63    30.22R WCI  10
COTTONWOOD PAS FAIR      46 -13   8 SW32G51   30.21F
GUNNISON       FAIR       3   3 100 CALM      30.40F
KREMMLING      FLURRIES N/A N/A N/A CALM      30.27F
LEADVILLE      FAIR      43  -3  14 NW12G25   30.26F
MONARCH PASS   FAIR      30   7  37 W38G49    30.44S WCI  14
SALIDA         NOT AVBL
SUNLIGHT       FAIR      37  14  38 CALM      30.35F
WILKERSON PASS FAIR      39   7  26 W5        30.28S
$$

COZ069>075-131900-
...SAN LUIS VALLEY/SANGRE DE CRISTO MOUNTAINS...

CITY           SKY/WX    TMP DP  RH WIND       PRES   REMARKS
ALAMOSA        FAIR      44  24  45 CALM      30.26F
LA VETA PASS   FAIR      39  18  41 S14G24    30.26F
SAGUACHE       FAIR      43  23  45 S3        30.28F
$$

COZ035-036-038>040-131900-
...NORTHERN COLORADO FRONT RANGE...

CITY           SKY/WX    TMP DP  RH WIND       PRES   REMARKS
DENVER INTL AP PTSUNNY   35  32  88 N7        30.03S FOG     WCI  29
DMNS CITY PARK   N/A     58  29  34 E3G10     30.00F
AURORA         PTSUNNY   61  21  21 SW5       30.03F
FRONT RANGE AP PTSUNNY   37  36  93 MISG      30.03F
ERIE MUNI ARPT CLOUDY    32  32 100 NE5       30.04S FOG     WCI  28
BOULDER MUN AP CLOUDY    32  32 100 CALM      30.03S FOG
CENTENNIAL     PTSUNNY   59  23  25 SE5       30.03F
BROOMFIELD     PTSUNNY   45  34  65 N10       30.01F
FORT COLLINS   CLOUDY    30  28  93 CALM      30.05F VSB<1/4
LONGMONT       CLOUDY    36  35  95 E3        30.06F FOG
$$

COZ041-046-047-076>085-087-088-131900-
...PIKES PEAK/PALMER DIVIDE AND SOUTHERN FOOTHILLS...

CITY           SKY/WX    TMP DP  RH WIND       PRES   REMARKS
COLO. SPRINGS  PTSUNNY   56  22  26 E5        30.07F
A. F. ACADEMY  FAIR      53  22  30 SE7       30.07F
SCHRIEVER AFB  FAIR      57  17  21 NW2       30.08F
ELLICOTT       LGT RAIN N/A N/A N/A CALM      30.06F
FALCON         FAIR      52  18  26 CALM      30.11F
FORT CARSON    FAIR      51  34  52 E5        30.05F
LIMON          CLOUDY    31  30  96 SE3       30.06F
MONUMENT HILL  FAIR      45  19  36 SW5       30.10F
TRINIDAD       FAIR      69  13  11 SW13G18   30.09F
$$

COZ042>045-048>051-090-091-131900-
...NORTHEAST COLORADO...

CITY           SKY/WX    TMP DP  RH WIND       PRES   REMARKS
GREELEY ARPT   CLOUDY    30  28  93 CALM      30.06F
AKRON          FOG       31  31 100 W6        30.04F VSB 1/2 WCI  25
BURLINGTON     CLOUDY    28  25  88 S15       30.10F FOG     WCI  16
WRAY           CLOUDY    31  29  94 S9        30.11F WCI  23
STERLING       CLOUDY    32  32 100 SW9       30.04F FOG     WCI  24
HOLYOKE        CLOUDY    34  32  93 S12       30.09F FOG     WCI  25
FORT MORGAN    FOG       32  31  97 W5        30.05F VSB 1/4 WCI  27
$$

COZ086-089-092>099-131900-
...SOUTHEAST COLORADO...

CITY           SKY/WX    TMP DP  RH WIND       PRES   REMARKS
PUEBLO         FAIR      33  29  85 CALM      30.07F FOG
LA JUNTA       CLOUDY    35  29  78 CALM      30.10F
LAMAR          CLOUDY    32  28  85 SE5       30.11F WCI  27
SPRINGFIELD      N/A     55  29  36 NE6       30.06F
$$



USA.gov is the U.S. government's official web portal to all federal, state and local government web resources and services.